Time,TemperatureF,DewpointF,PressureIn,WindDirection,WindDirectionDegrees,WindSpeedMPH,WindSpeedGustMPH,Humidity,HourlyPrecipIn,Conditions,Clouds,dailyrainin,SoftwareType,DateUTC
2013-03-10 00:00:00,36.9,25.0,30.30,NW,315,2.0,2.0,63,0.00,,,0.00,weatherlink.com 1.10,2013-03-10 05:00:00,
2013-03-10 00:15:00,37.1,25.0,30.30,NW,315,2.0,3.0,62,0.00,,,0.00,weatherlink.com 1.10,2013-03-10 05:15:00,
2013-03-10 00:30:00,36.5,25.0,30.30,NW,315,0.0,1.0,63,0.00,,,0.00,weatherlink.com 1.10,2013-03-10 05:30:00,
2013-03-10 00:45:00,36.1,25.0,30.31,NW,315,0.0,1.0,64,0.00,,,0.00,weatherlink.com 1.10,2013-03-10 05:45:00,
2013-03-10 01:00:00,35.6,24.0,30.31,NW,315,0.0,1.0,64,0.00,,,0.00,weatherlink.com 1.10,2013-03-10 06:00:00,
2013-03-10 01:15:00,35.5,26.0,30.31,ESE,116,0.0,1.0,68,0.00,,,0.00,weatherlink.com 1.10,2013-03-10 06:15:00,
2013-03-10 01:30:00,37.1,25.0,30.30,ENE,61,0.0,2.0,63,0.00,,,0.00,weatherlink.com 1.10,2013-03-10 06:30:00,
2013-03-10 01:46:00,37.8,25.0,30.30,NW,315,0.0,1.0,61,0.00,,,0.00,weatherlink.com 1.10,2013-03-10 06:46:00,
2013-03-10 03:01:00,37.7,24.0,30.30,NNW,337,2.0,2.0,59,0.00,,,0.00,weatherlink.com 1.10,2013-03-10 07:01:00,
2013-03-10 03:16:00,36.7,24.0,30.30,NW,316,1.0,3.0,60,0.00,,,0.00,weatherlink.com 1.10,2013-03-10 07:16:00,
2013-03-10 03:31:00,38.0,23.0,30.30,North,356,0.0,1.0,54,0.00,,,0.00,weatherlink.com 1.10,2013-03-10 07:31:00,
2013-03-10 03:46:00,37.9,22.0,30.29,NNW,345,1.0,3.0,53,0.00,,,0.00,weatherlink.com 1.10,2013-03-10 07:46:00,
2013-03-10 04:01:00,35.6,24.0,30.29,NW,314,2.0,3.0,63,0.00,,,0.00,weatherlink.com 1.10,2013-03-10 08:01:00,
2013-03-10 04:16:00,33.6,24.0,30.29,NW,314,0.0,3.0,68,0.00,,,0.00,weatherlink.com 1.10,2013-03-10 08:16:00,
2013-03-10 04:31:00,32.8,24.0,30.29,NW,313,1.0,2.0,71,0.00,,,0.00,weatherlink.com 1.10,2013-03-10 08:31:00,
2013-03-10 04:46:00,32.7,23.0,30.29,NW,314,0.0,1.0,68,0.00,,,0.00,weatherlink.com 1.10,2013-03-10 08:46:00,
2013-03-10 05:01:00,32.1,24.0,30.29,NW,314,0.0,1.0,71,0.00,,,0.00,weatherlink.com 1.10,2013-03-10 09:01:00,
2013-03-10 05:16:00,31.9,24.0,30.30,NW,314,0.0,0.0,72,0.00,,,0.00,weatherlink.com 1.10,2013-03-10 09:16:00,
2013-03-10 05:31:00,33.7,21.0,30.29,ENE,77,0.0,1.0,61,0.00,,,0.00,weatherlink.com 1.10,2013-03-10 09:31:00,
2013-03-10 05:46:00,35.7,20.0,30.30,East,101,0.0,1.0,54,0.00,,,0.00,weatherlink.com 1.10,2013-03-10 09:46:00,
2013-03-10 06:01:00,37.3,21.0,30.30,East,99,0.0,2.0,53,0.00,,,0.00,weatherlink.com 1.10,2013-03-10 10:01:00,
2013-03-10 06:16:00,37.8,22.0,30.30,ESE,104,0.0,3.0,54,0.00,,,0.00,weatherlink.com 1.10,2013-03-10 10:16:00,
2013-03-10 06:31:00,38.6,23.0,30.30,ESE,115,2.0,3.0,53,0.00,,,0.00,weatherlink.com 1.10,2013-03-10 10:31:00,
2013-03-10 06:46:00,38.7,23.0,30.31,ENE,72,1.0,2.0,54,0.00,,,0.00,weatherlink.com 1.10,2013-03-10 10:46:00,
2013-03-10 07:01:00,38.5,23.0,30.31,ENE,74,2.0,4.0,54,0.00,,,0.00,weatherlink.com 1.10,2013-03-10 11:01:00,
2013-03-10 07:16:00,39.0,23.0,30.32,SE,134,0.0,2.0,53,0.00,,,0.00,weatherlink.com 1.10,2013-03-10 11:16:00,
2013-03-10 07:31:00,37.3,22.0,30.33,NW,319,1.0,2.0,55,0.00,,,0.00,weatherlink.com 1.10,2013-03-10 11:31:00,
2013-03-10 07:46:00,35.8,23.0,30.32,NNE,16,0.0,3.0,59,0.00,,,0.00,weatherlink.com 1.10,2013-03-10 11:46:00,
2013-03-10 08:01:00,39.2,23.0,30.32,SE,126,1.0,4.0,52,0.00,,,0.00,weatherlink.com 1.10,2013-03-10 12:01:00,
2013-03-10 08:16:00,39.8,23.0,30.33,ESE,115,2.0,5.0,52,0.00,,,0.00,weatherlink.com 1.10,2013-03-10 12:16:00,
2013-03-10 08:31:00,41.2,24.0,30.33,ESE,102,3.0,6.0,50,0.00,,,0.00,weatherlink.com 1.10,2013-03-10 12:31:00,
2013-03-10 08:46:00,42.0,24.0,30.33,SE,139,3.0,6.0,50,0.00,,,0.00,weatherlink.com 1.10,2013-03-10 12:46:00,
2013-03-10 09:01:00,43.0,25.0,30.33,East,90,2.0,7.0,50,0.00,,,0.00,weatherlink.com 1.10,2013-03-10 13:01:00,
2013-03-10 09:16:00,43.8,27.0,30.33,South,188,4.0,10.0,53,0.00,,,0.00,weatherlink.com 1.10,2013-03-10 13:16:00,
2013-03-10 09:31:00,43.8,28.0,30.33,SE,145,6.0,9.0,55,0.00,,,0.00,weatherlink.com 1.10,2013-03-10 13:31:00,
2013-03-10 09:46:00,43.9,28.0,30.33,SE,131,5.0,11.0,54,0.00,,,0.00,weatherlink.com 1.10,2013-03-10 13:46:00,
2013-03-10 10:02:00,44.6,29.0,30.34,SE,140,5.0,9.0,54,0.00,,,0.00,weatherlink.com 1.10,2013-03-10 14:02:00,
2013-03-10 10:17:00,45.1,30.0,30.34,SE,125,3.0,8.0,55,0.00,,,0.00,weatherlink.com 1.10,2013-03-10 14:17:00,
2013-03-10 10:32:00,46.3,31.0,30.34,SSE,156,3.0,8.0,56,0.00,,,0.00,weatherlink.com 1.10,2013-03-10 14:32:00,
2013-03-10 10:47:00,46.7,30.0,30.34,SE,124,5.0,8.0,53,0.00,,,0.00,weatherlink.com 1.10,2013-03-10 14:47:00,
2013-03-10 11:02:00,48.7,33.0,30.33,ESE,113,4.0,8.0,54,0.00,,,0.00,weatherlink.com 1.10,2013-03-10 15:02:00,
2013-03-10 11:17:00,50.4,30.0,30.33,SE,133,4.0,10.0,45,0.00,,,0.00,weatherlink.com 1.10,2013-03-10 15:17:00,
2013-03-10 11:32:00,51.8,31.0,30.33,SE,142,5.0,8.0,46,0.00,,,0.00,weatherlink.com 1.10,2013-03-10 15:32:00,
2013-03-10 11:47:00,52.6,27.0,30.33,South,179,7.0,10.0,38,0.00,,,0.00,weatherlink.com 1.10,2013-03-10 15:47:00,
2013-03-10 12:02:00,52.8,28.0,30.33,SE,127,6.0,12.0,39,0.00,,,0.00,weatherlink.com 1.10,2013-03-10 16:02:00,
2013-03-10 12:17:00,53.9,29.0,30.32,South,179,6.0,10.0,39,0.00,,,0.00,weatherlink.com 1.10,2013-03-10 16:17:00,
2013-03-10 12:32:00,53.6,28.0,30.32,South,179,5.0,13.0,38,0.00,,,0.00,weatherlink.com 1.10,2013-03-10 16:32:00,
2013-03-10 12:47:00,53.7,29.0,30.32,SSE,168,7.0,12.0,39,0.00,,,0.00,weatherlink.com 1.10,2013-03-10 16:47:00,
2013-03-10 13:02:00,54.3,31.0,30.32,SSE,148,5.0,12.0,41,0.00,,,0.00,weatherlink.com 1.10,2013-03-10 17:02:00,
2013-03-10 13:17:00,55.4,29.0,30.31,SE,139,6.0,11.0,37,0.00,,,0.00,weatherlink.com 1.10,2013-03-10 17:17:00,
2013-03-10 13:32:00,56.3,30.0,30.30,SSE,150,8.0,11.0,37,0.00,,,0.00,weatherlink.com 1.10,2013-03-10 17:32:00,
2013-03-10 13:47:00,57.4,25.0,30.29,SSE,148,6.0,13.0,29,0.00,,,0.00,weatherlink.com 1.10,2013-03-10 17:47:00,
2013-03-10 14:02:00,56.9,25.0,30.28,South,181,7.0,13.0,29,0.00,,,0.00,weatherlink.com 1.10,2013-03-10 18:02:00,
2013-03-10 14:17:00,56.4,26.0,30.28,SE,146,4.0,11.0,31,0.00,,,0.00,weatherlink.com 1.10,2013-03-10 18:17:00,
2013-03-10 14:32:00,57.0,25.0,30.27,South,173,7.0,15.0,29,0.00,,,0.00,weatherlink.com 1.10,2013-03-10 18:32:00,
2013-03-10 14:47:00,57.1,25.0,30.26,South,176,7.0,13.0,29,0.00,,,0.00,weatherlink.com 1.10,2013-03-10 18:47:00,
2013-03-10 15:02:00,56.8,25.0,30.26,South,185,11.0,13.0,29,0.00,,,0.00,weatherlink.com 1.10,2013-03-10 19:02:00,
2013-03-10 15:17:00,56.6,25.0,30.25,SE,136,6.0,13.0,30,0.00,,,0.00,weatherlink.com 1.10,2013-03-10 19:17:00,
2013-03-10 15:32:00,57.6,25.0,30.25,SSE,150,8.0,14.0,28,0.00,,,0.00,weatherlink.com 1.10,2013-03-10 19:32:00,
2013-03-10 15:48:00,57.7,26.0,30.25,SSE,158,8.0,14.0,30,0.00,,,0.00,weatherlink.com 1.10,2013-03-10 19:48:00,
2013-03-10 16:02:00,57.8,26.0,30.25,SSE,162,5.0,13.0,29,0.00,,,0.00,weatherlink.com 1.10,2013-03-10 20:02:00,
2013-03-10 16:17:00,58.0,27.0,30.25,SE,134,11.0,15.0,30,0.00,,,0.00,weatherlink.com 1.10,2013-03-10 20:17:00,
2013-03-10 16:32:00,58.0,28.0,30.24,SE,126,8.0,16.0,32,0.00,,,0.00,weatherlink.com 1.10,2013-03-10 20:32:00,
2013-03-10 16:47:00,58.0,27.0,30.24,SSE,148,5.0,16.0,31,0.00,,,0.00,weatherlink.com 1.10,2013-03-10 20:47:00,
2013-03-10 17:02:00,57.4,28.0,30.24,South,180,8.0,15.0,32,0.00,,,0.00,weatherlink.com 1.10,2013-03-10 21:02:00,
2013-03-10 17:17:00,57.5,29.0,30.23,SE,131,3.0,14.0,34,0.00,,,0.00,weatherlink.com 1.10,2013-03-10 21:17:00,
2013-03-10 17:33:00,56.8,28.0,30.23,SSE,160,7.0,16.0,33,0.00,,,0.00,weatherlink.com 1.10,2013-03-10 21:33:00,
2013-03-10 17:48:00,57.2,28.0,30.23,South,169,8.0,14.0,33,0.00,,,0.00,weatherlink.com 1.10,2013-03-10 21:48:00,
2013-03-10 18:03:00,56.7,28.0,30.23,South,181,5.0,14.0,34,0.00,,,0.00,weatherlink.com 1.10,2013-03-10 22:03:00,
2013-03-10 18:18:00,55.9,29.0,30.23,SSE,148,8.0,12.0,36,0.00,,,0.00,weatherlink.com 1.10,2013-03-10 22:18:00,
2013-03-10 18:33:00,55.4,29.0,30.24,SE,143,7.0,9.0,37,0.00,,,0.00,weatherlink.com 1.10,2013-03-10 22:33:00,
2013-03-10 18:48:00,54.6,31.0,30.24,SSE,158,4.0,8.0,40,0.00,,,0.00,weatherlink.com 1.10,2013-03-10 22:48:00,
2013-03-10 19:03:00,53.8,31.0,30.24,SSE,150,3.0,8.0,42,0.00,,,0.00,weatherlink.com 1.10,2013-03-10 23:03:00,
2013-03-10 19:18:00,52.8,32.0,30.25,South,171,2.0,8.0,45,0.00,,,0.00,weatherlink.com 1.10,2013-03-10 23:18:00,
2013-03-10 19:33:00,51.1,33.0,30.25,SSE,155,3.0,6.0,50,0.00,,,0.00,weatherlink.com 1.10,2013-03-10 23:33:00,
2013-03-10 19:48:00,49.8,35.0,30.25,SE,143,5.0,7.0,58,0.00,,,0.00,weatherlink.com 1.10,2013-03-10 23:48:00,
2013-03-10 20:03:00,48.6,36.0,30.25,SSE,164,6.0,6.0,62,0.00,,,0.00,weatherlink.com 1.10,2013-03-11 00:03:00,
2013-03-10 20:18:00,47.4,36.0,30.25,SE,139,3.0,8.0,64,0.00,,,0.00,weatherlink.com 1.10,2013-03-11 00:18:00,
2013-03-10 20:33:00,46.9,33.0,30.26,South,170,5.0,9.0,60,0.00,,,0.00,weatherlink.com 1.10,2013-03-11 00:33:00,
2013-03-10 20:48:00,46.1,33.0,30.26,SSE,152,4.0,9.0,60,0.00,,,0.00,weatherlink.com 1.10,2013-03-11 00:48:00,
2013-03-10 21:03:00,45.1,32.0,30.27,SSE,148,2.0,8.0,61,0.00,,,0.00,weatherlink.com 1.10,2013-03-11 01:03:00,
2013-03-10 21:18:00,44.6,31.0,30.26,SE,138,3.0,8.0,60,0.00,,,0.00,weatherlink.com 1.10,2013-03-11 01:18:00,
2013-03-10 21:33:00,44.2,29.0,30.26,SE,138,8.0,12.0,55,0.00,,,0.00,weatherlink.com 1.10,2013-03-11 01:33:00,
2013-03-10 21:48:00,43.7,29.0,30.27,SE,139,3.0,8.0,57,0.00,,,0.00,weatherlink.com 1.10,2013-03-11 01:48:00,
2013-03-10 22:18:00,42.3,32.0,30.27,SE,133,4.0,7.0,66,0.00,,,0.00,weatherlink.com 1.10,2013-03-11 02:18:00,
2013-03-10 22:33:00,41.6,33.0,30.26,SE,130,7.0,11.0,71,0.00,,,0.00,weatherlink.com 1.10,2013-03-11 02:33:00,
2013-03-10 22:48:00,41.0,33.0,30.26,SE,135,4.0,10.0,74,0.00,,,0.00,weatherlink.com 1.10,2013-03-11 02:48:00,
2013-03-10 23:03:00,40.6,34.0,30.27,East,98,6.0,9.0,76,0.00,,,0.00,weatherlink.com 1.10,2013-03-11 03:03:00,
2013-03-10 23:33:00,39.5,35.0,30.28,ESE,115,2.0,7.0,83,0.00,,,0.00,weatherlink.com 1.10,2013-03-11 03:33:00,
2013-03-10 23:48:00,38.9,35.0,30.27,SE,133,4.0,7.0,85,0.00,,,0.00,weatherlink.com 1.10,2013-03-11 03:48:00,